Nunalat Nulaat

KL  EN  DA
ASIAQ
Weather Now GREENLAND SURVEY
Updated [WGT/WGST] Temperature [°C] Wind [m/s] Air pressure [hPa] Relative humidity [%] Precipitation [mm]
Present Wind chill Speed Max
24.09 02:00-7,60,02,9 ⇓n/a98868n/a
24.09 01:00-7,00,03,2 ⇓n/a98866n/a
24.09 00:00-6,70,03,3 ⇓n/a98865n/a
23.09 23:00-6,60,03,7 ⇓n/a98764n/a
23.09 22:00-6,10,04,2 ⇓n/a98760n/a
23.09 21:00-6,40,03,7 ⇓n/a98765n/a
23.09 20:00-6,10,03,4 ⇓n/a98769n/a
23.09 19:00-4,70,02,9 ⇓n/a98771n/a
23.09 18:00-3,60,02,4 ⇓n/a98675n/a
23.09 17:00-2,80,01,9 ⇓n/a98675n/a
23.09 16:00-2,40,02,1 ⇓n/a98673n/a
23.09 15:00-2,40,02,4 ⇘n/a98567n/a
23.09 14:00-2,50,02,1 ⇓n/a98566n/a
23.09 13:00-2,90,02,0 ⇓n/a98565n/a
23.09 12:00-3,50,04,3 ⇙n/a98465n/a
23.09 11:00-4,30,04,5 ⇙n/a98365n/a
23.09 10:00-5,10,05,5 ⇓n/a98365n/a
23.09 09:00-5,90,06,2 ⇓n/a98264n/a
23.09 08:00-7,00,06,8 ⇓n/a98264n/a
23.09 07:00-7,20,06,9 ⇓n/a98163n/a
23.09 06:00-7,50,07,4 ⇓n/a98164n/a
23.09 05:00-8,40,07,9 ⇓n/a98061n/a
23.09 04:00-9,00,08,3 ⇓n/a98064n/a
23.09 03:00-9,20,010,0 ⇓n/a98071n/a
23.09 02:00-9,20,010,3 ⇓n/a97974n/a
Position: (65.6402,-38.8987)

[Back]